This is the latest recevied weather packets stored in our database for station/object HB9TVK-13. If no packets are shown the sender has not sent any weather packets the latest 10 day(s).
| Time | Temp. | Humidity | Pressure | Rain* | Wind** | Luminosity | Snow |
|---|---|---|---|---|---|---|---|
| 1777902437 | 20° C | 53% | 1013.9 hPa | 0 mm | - | - | - |
| 1777901838 | 20.56° C | 51% | 1013.9 hPa | 0 mm | - | - | - |
| 1777901235 | 20.56° C | 52% | 1013.9 hPa | 0 mm | - | - | - |
| 1777900636 | 20.56° C | 53% | 1013.9 hPa | 0 mm | - | - | - |
| 1777900036 | 20° C | 53% | 1014 hPa | 0 mm | - | - | - |
| 1777899437 | 20° C | 51% | 1014 hPa | 0 mm | - | - | - |
| 1777898837 | 20° C | 50% | 1014.1 hPa | 0 mm | - | - | - |
| 1777898237 | 20° C | 50% | 1014.1 hPa | 0 mm | - | - | - |
| 1777897635 | 20.56° C | 49% | 1014.1 hPa | 0 mm | - | - | - |
| 1777897036 | 20.56° C | 50% | 1014.1 hPa | 0 mm | - | - | - |
| 1777896436 | 20° C | 53% | 1014.2 hPa | 0 mm | - | - | - |
| 1777895836 | 20° C | 53% | 1014.2 hPa | 0 mm | - | - | - |
| 1777895237 | 19.44° C | 53% | 1014.3 hPa | 0 mm | - | - | - |
| 1777894637 | 19.44° C | 55% | 1014.3 hPa | 0 mm | - | - | - |
| 1777894037 | 18.89° C | 55% | 1014.2 hPa | 0 mm | - | - | - |
| 1777893436 | 18.89° C | 55% | 1014.3 hPa | 0 mm | - | - | - |
| 1777892836 | 19.44° C | 55% | 1014.3 hPa | 0 mm | - | - | - |
| 1777892236 | 19.44° C | 55% | 1014.5 hPa | 0 mm | - | - | - |
| 1777891636 | 18.89° C | 56% | 1014.8 hPa | 0 mm | - | - | - |
| 1777891037 | 18.89° C | 57% | 1014.9 hPa | 0 mm | - | - | - |
| 1777890437 | 18.33° C | 57% | 1014.9 hPa | 0 mm | - | - | - |
| 1777889837 | 18.33° C | 56% | 1015.1 hPa | 0 mm | - | - | - |
| 1777889235 | 17.78° C | 57% | 1015.3 hPa | 0 mm | - | - | - |
| 1777888636 | 17.22° C | 57% | 1015.3 hPa | 0 mm | - | - | - |
| 1777888036 | 17.78° C | 59% | 1015.4 hPa | 0 mm | - | - | - |
* Rain latest hour (hover to see other rain measurements)
** Current wind speed in m/s (hover to see current wind gust speed)